Date,TemperatureHighF,TemperatureAvgF,TemperatureLowF,DewpointHighF,DewpointAvgF,DewpointLowF,HumidityHigh,HumidityAvg,HumidityLow,PressureMaxIn,PressureMinIn,WindSpeedMaxMPH,WindSpeedAvgMPH,GustSpeedMaxMPH,PrecipitationSumIn
2013-1-2,56.1,43.7,30.9,35.3,32.6,28.5,91,68,43,0.00,0.00,6,2,10,0.00
2013-1-3,56.0,38.0,27.9,38.0,31.9,26.3,95,81,47,0.00,0.00,6,2,10,0.00
2013-1-4,33.6,33.6,33.6,31.8,31.8,31.8,93,93,93,0.00,0.00,2,2,5,0.00
2013-1-8,57.8,45.4,40.8,47.7,42.2,39.7,96,89,69,0.00,0.00,6,2,10,0.00
2013-1-9,52.8,43.7,37.7,48.7,41.9,37.0,98,94,80,0.00,0.00,10,2,19,0.00
2013-1-23,52.1,49.1,47.6,48.1,47.2,45.3,97,93,78,0.00,0.00,7,1,17,0.00
2013-1-24,59.8,51.1,47.3,53.0,49.0,46.6,98,93,76,0.00,0.00,6,1,10,0.33
2013-1-25,66.8,54.8,46.7,55.2,50.6,45.8,98,87,61,0.00,0.00,6,2,12,0.00
2013-1-26,50.9,48.9,47.1,49.5,47.3,45.3,96,94,91,0.00,0.00,3,2,6,0.00
2013-2-1,69.6,56.2,42.3,46.5,43.2,38.8,88,64,39,0.00,0.00,6,3,10,0.00
2013-2-2,64.7,47.9,38.5,50.9,42.6,37.0,96,83,57,0.00,0.00,6,2,12,0.00
2013-2-3,61.8,47.7,36.8,49.4,43.5,35.8,98,87,63,0.00,0.00,8,2,14,0.00
2013-2-4,39.5,37.7,35.7,38.5,36.8,35.0,97,97,96,0.00,0.00,2,0,5,0.00
2013-2-7,52.6,43.0,35.5,40.5,37.4,34.4,96,82,55,0.00,0.00,10,4,17,0.00
2013-2-8,56.9,44.0,32.4,40.7,34.6,22.4,98,73,36,0.00,0.00,13,3,22,0.13
2013-2-9,61.0,47.1,33.9,36.9,28.5,21.1,81,51,29,0.00,0.00,10,4,21,0.00
2013-2-10,63.9,44.7,28.9,45.8,34.0,24.1,92,69,32,0.00,0.00,7,3,14,0.00
2013-2-11,59.8,44.2,36.0,37.4,30.5,23.4,85,60,31,0.00,0.00,5,3,10,0.00
2013-2-12,62.4,45.9,33.1,44.6,38.0,31.8,97,77,43,0.00,0.00,6,2,12,0.00
2013-2-13,67.2,46.5,31.7,46.7,39.1,30.9,97,78,44,0.00,0.00,8,2,14,0.00
2013-2-14,70.4,49.8,34.6,47.4,40.8,34.0,98,75,37,0.00,0.00,7,3,12,0.00
2013-2-15,72.3,52.7,36.6,46.5,39.9,34.9,94,67,32,0.00,0.00,6,3,12,0.00
2013-2-16,59.5,44.6,37.9,44.5,39.2,35.6,92,82,57,0.00,0.00,3,2,6,0.00
2013-2-18,53.3,52.2,51.2,42.2,41.4,40.2,68,67,66,0.00,0.00,10,8,15,0.00
2013-2-19,49.5,42.1,33.1,42.3,35.6,30.9,97,78,58,0.00,0.00,10,4,21,0.00
2013-2-20,61.9,43.5,29.7,36.4,31.3,28.1,94,68,30,0.00,0.00,8,4,15,0.49
2013-2-26,74.4,57.7,34.8,37.0,29.8,20.0,89,41,13,0.00,0.00,6,3,14,0.00
2013-2-27,68.5,50.4,32.2,43.4,37.0,28.8,88,63,31,0.00,0.00,9,3,17,0.00
2013-2-28,69.2,56.1,45.1,54.4,48.2,42.9,94,76,57,0.00,0.00,10,3,19,0.00
2013-3-1,73.8,54.7,40.6,53.8,46.7,39.6,98,78,44,0.00,0.00,5,2,10,0.00
2013-3-6,56.4,48.7,36.8,43.4,40.0,35.1,94,73,51,0.00,0.00,11,5,22,0.00
2013-3-7,55.8,45.7,34.8,42.2,37.4,33.7,97,75,50,0.00,0.00,5,2,10,0.00
2013-3-8,61.1,48.3,35.9,45.7,38.8,33.7,92,71,42,0.00,0.00,13,5,22,0.00
2013-3-9,71.4,52.1,34.4,46.3,37.9,28.8,95,64,20,0.00,0.00,11,4,21,0.00
2013-3-10,70.0,52.5,34.5,46.8,36.5,25.5,94,60,26,0.00,0.00,10,4,19,0.00
2013-3-11,41.3,39.4,37.8,33.1,32.9,32.6,82,77,71,0.00,0.00,3,2,5,0.00
2013-3-13,79.4,69.3,53.7,55.5,52.0,48.9,85,57,36,0.00,0.00,5,3,10,0.00
2013-3-14,73.6,56.3,44.3,55.9,48.6,41.6,97,78,46,0.00,0.00,10,2,17,0.00
2013-3-15,74.7,53.5,40.6,54.3,44.7,37.9,93,75,39,0.00,0.00,10,3,19,0.00
2013-3-16,72.8,56.0,40.1,50.5,44.1,38.8,97,68,39,0.00,0.00,12,4,21,0.00
2013-3-17,68.6,55.3,42.2,45.5,40.6,37.0,84,60,37,0.00,0.00,11,4,19,0.00
2013-3-18,69.4,53.2,36.9,47.4,40.8,31.2,95,67,31,0.00,0.00,11,3,21,0.00
2013-3-19,66.8,52.4,42.7,48.2,43.5,39.5,93,74,40,0.00,0.00,8,2,15,0.00
2013-3-20,58.3,52.3,46.8,55.2,49.9,44.9,96,92,84,0.00,0.00,8,3,14,0.06
2013-3-21,66.6,51.2,37.0,47.9,42.4,35.9,96,74,44,0.00,0.00,11,4,19,0.30
2013-3-22,67.7,52.8,36.2,40.8,32.1,14.5,89,53,17,0.00,0.00,11,4,19,0.00
2013-3-23,69.4,51.5,35.4,44.4,35.7,30.2,88,59,28,0.00,0.00,10,3,15,0.00
2013-3-24,72.1,53.3,36.9,50.2,41.1,35.2,94,67,33,0.00,0.00,8,3,15,0.00
2013-3-25,59.7,47.2,35.9,46.0,41.4,34.9,97,81,60,0.00,0.00,13,5,22,0.00
2013-3-26,66.4,52.9,42.2,49.5,43.9,40.2,94,73,48,0.00,0.00,12,4,19,0.00
2013-3-27,63.4,52.6,43.1,51.8,46.3,40.4,93,80,61,0.00,0.00,8,3,15,0.00
2013-3-28,68.5,56.1,48.4,53.0,49.2,46.4,93,79,53,0.00,0.00,5,2,10,0.00
2013-3-29,78.1,59.0,42.6,54.3,49.4,41.6,97,75,35,0.00,0.00,7,3,14,0.00
2013-3-30,70.8,58.8,51.2,55.9,51.4,47.7,93,77,53,0.00,0.00,8,3,15,0.00
2013-3-31,66.1,56.9,49.9,55.1,52.2,48.9,97,85,59,0.00,0.00,9,3,15,0.07
2013-4-1,65.8,56.0,47.4,56.0,51.6,45.4,97,86,63,0.00,0.00,9,3,19,0.05
2013-4-2,68.2,55.0,42.3,54.9,48.1,41.4,98,79,53,0.00,0.00,11,3,19,0.00
2013-4-3,76.5,56.0,43.2,53.9,48.2,41.9,98,78,40,0.00,0.00,7,3,14,0.00
2013-4-4,62.6,55.1,49.4,56.6,52.0,47.0,97,90,78,0.00,0.00,9,3,19,0.00
2013-4-5,64.1,56.7,50.1,54.7,51.1,48.4,97,82,63,0.00,0.00,10,4,19,0.76
2013-4-6,54.4,53.8,53.3,51.1,50.3,49.7,91,88,85,0.00,0.00,5,1,10,0.00
2013-4-10,82.5,74.1,62.7,59.2,53.6,48.1,67,50,37,0.00,0.00,12,7,19,0.00
2013-4-11,75.3,60.3,45.9,53.0,47.7,41.6,90,65,30,0.00,0.00,12,4,21,0.00
2013-4-12,75.9,56.7,40.7,56.1,45.1,38.3,96,70,28,0.00,0.00,11,3,21,0.00
2013-4-13,70.8,55.7,41.7,52.2,44.7,38.8,94,69,45,0.00,0.00,13,4,22,0.00
2013-4-14,73.4,54.1,41.2,45.0,39.4,29.6,86,61,27,0.00,0.00,16,7,30,0.00
2013-4-15,62.6,52.4,41.7,43.8,36.6,29.2,93,58,29,0.00,0.00,16,7,30,0.00
2013-4-16,69.9,54.3,37.0,36.9,28.4,17.4,79,42,14,0.00,0.00,12,5,24,0.00
2013-4-17,73.0,61.3,52.7,31.4,24.1,16.6,44,25,13,0.00,0.00,12,7,26,0.00
2013-4-18,76.7,60.8,43.6,41.8,35.1,26.2,72,41,23,0.00,0.00,10,4,19,0.00
2013-4-19,71.6,51.4,42.8,48.6,42.4,39.1,89,73,44,0.00,0.00,4,1,8,0.00
2013-4-23,85.5,71.3,49.0,43.3,32.5,15.4,72,29,10,0.00,0.00,11,6,21,0.00
2013-4-24,74.4,53.9,38.8,51.3,44.7,37.0,95,74,42,0.00,0.00,9,3,19,0.00
2013-4-25,64.8,55.1,47.0,49.4,47.0,44.1,90,75,57,0.00,0.00,13,6,22,0.00
2013-4-26,74.5,56.9,46.1,53.7,48.1,43.2,91,74,47,0.00,0.00,9,3,15,0.00
2013-4-27,82.1,58.3,44.0,55.4,48.0,42.2,94,73,31,0.00,0.00,9,2,15,0.00
2013-4-28,87.6,60.3,42.4,56.9,48.0,41.0,96,70,31,0.00,0.00,8,2,14,0.00
2013-4-29,88.1,69.8,49.2,55.1,49.2,45.1,91,54,23,0.00,0.00,11,4,19,0.00
2013-4-30,89.9,70.2,47.5,48.9,33.1,10.7,89,40,6,0.00,0.00,12,4,31,0.00
2013-5-1,89.6,74.8,54.5,41.7,21.9,12.4,51,17,9,0.00,0.00,12,6,30,0.00
2013-5-2,91.7,69.7,46.6,44.6,35.2,24.3,67,36,11,0.00,0.00,9,4,19,0.00
2013-5-3,91.2,72.2,45.4,44.3,37.9,31.2,67,33,15,0.00,0.00,9,4,19,0.00
2013-5-4,88.7,66.3,46.2,50.6,43.0,35.3,86,50,16,0.00,0.00,10,4,19,0.00
2013-5-5,67.0,59.1,52.0,49.4,48.2,46.4,86,68,49,0.00,0.00,8,4,15,0.00
2013-5-6,72.3,60.3,50.3,55.5,49.9,46.9,90,70,42,0.00,0.00,7,3,15,0.00
2013-5-7,72.7,61.9,52.5,53.0,50.1,43.1,87,67,40,0.00,0.00,10,5,21,0.00
2013-5-8,66.2,55.2,47.5,51.7,48.9,45.5,94,80,60,0.00,0.00,12,5,24,0.00
2013-5-9,69.2,56.7,46.3,52.2,48.9,44.5,95,77,54,0.00,0.00,12,6,26,0.00
2013-5-10,79.5,60.3,49.0,56.6,50.7,46.6,93,73,41,0.00,0.00,9,3,17,0.00
2013-5-11,89.5,64.3,44.5,57.6,50.9,43.0,96,68,26,0.00,0.00,7,2,15,0.00
2013-5-12,82.8,63.6,44.7,57.6,48.1,31.7,95,63,18,0.00,0.00,12,4,22,0.00
2013-5-13,83.5,63.3,43.5,57.2,50.0,42.1,95,66,39,0.00,0.00,11,3,19,0.00
2013-5-14,81.9,64.0,48.1,53.6,47.7,43.9,90,60,30,0.00,0.00,10,3,17,0.00
2013-5-15,73.4,59.1,42.7,49.3,45.1,40.6,92,63,36,0.00,0.00,13,5,22,0.00
2013-5-16,70.2,61.2,50.1,54.2,49.1,45.1,83,65,47,0.00,0.00,15,7,28,0.00
2013-5-17,67.7,56.6,43.6,46.5,44.0,40.3,91,65,40,0.00,0.00,11,4,21,0.00
2013-5-18,77.4,60.6,40.5,50.6,44.9,38.6,94,61,29,0.00,0.00,13,4,22,0.00
2013-5-19,84.7,66.2,44.3,46.9,42.4,30.1,89,48,14,0.00,0.00,12,4,21,0.00
2013-5-20,88.6,71.5,51.6,49.2,41.6,32.5,77,40,15,0.00,0.00,11,5,21,0.00
2013-5-21,72.7,60.8,48.9,45.6,41.7,33.9,85,53,24,0.00,0.00,13,6,26,0.00
2013-5-22,67.5,55.3,42.2,41.4,33.1,20.7,73,46,18,0.00,0.00,14,6,26,0.00
2013-5-23,70.4,55.9,38.9,42.5,38.7,34.4,89,57,30,0.00,0.00,11,4,21,0.00
2013-5-24,73.5,56.9,40.3,43.4,40.5,36.2,86,58,30,0.00,0.00,12,4,21,0.00
2013-5-25,72.6,56.1,40.1,47.3,43.2,37.7,93,66,36,0.00,0.00,12,5,22,0.00
2013-5-26,68.5,59.5,48.1,51.0,48.3,45.0,91,68,51,0.00,0.00,15,6,26,0.00
2013-5-27,63.5,56.2,45.6,55.7,49.8,42.6,95,80,62,0.00,0.00,8,3,19,0.00
2013-5-28,71.5,61.8,55.1,57.6,54.0,50.2,96,77,54,0.00,0.00,13,5,26,0.09
2013-5-29,73.8,63.1,51.0,53.9,50.6,45.9,82,65,47,0.00,0.00,13,6,22,0.00
2013-5-30,78.6,61.8,42.8,46.9,44.6,40.6,93,59,29,0.00,0.00,13,4,22,0.00
2013-5-31,91.3,68.0,44.7,51.8,45.6,41.6,90,52,20,0.00,0.00,11,4,19,0.00
2013-6-1,94.9,71.7,48.8,51.0,47.7,43.5,87,49,18,0.00,0.00,10,3,17,0.00
2013-6-2,87.6,67.7,50.2,54.5,49.0,44.8,86,56,25,0.00,0.00,8,3,17,0.00
2013-6-3,76.6,62.3,48.6,53.6,50.8,46.6,93,69,44,0.00,0.00,10,4,19,0.00
2013-6-4,66.8,56.9,53.1,51.4,50.1,49.4,88,79,57,0.00,0.00,11,6,21,0.00
2013-6-5,76.0,59.1,52.6,54.1,50.6,48.6,89,75,46,0.00,0.00,9,4,17,0.00
2013-6-6,86.8,64.0,51.0,56.7,51.5,46.9,90,68,35,0.00,0.00,8,3,15,0.00
2013-6-7,101.1,70.4,48.6,59.9,52.0,45.9,94,61,17,0.00,0.00,8,2,14,0.00
2013-6-8,98.5,72.5,55.4,60.0,55.5,51.7,91,61,27,0.00,0.00,9,3,21,0.00
2013-6-9,68.4,60.7,56.0,53.8,52.9,51.9,88,76,58,0.00,0.00,9,6,19,0.00
2013-6-10,65.0,59.8,55.1,54.2,52.2,49.5,93,77,63,0.00,0.00,8,4,14,0.00
2013-6-11,79.7,65.1,53.4,55.3,52.0,47.5,88,65,43,0.00,0.00,11,4,21,0.00
2013-6-12,80.1,63.5,43.6,47.5,45.0,41.1,92,56,29,0.00,0.00,12,4,24,0.10
2013-6-13,81.5,65.4,43.7,47.8,42.8,38.0,83,48,24,0.00,0.00,12,4,21,0.00
2013-6-14,88.1,68.2,48.2,47.4,41.6,25.8,84,46,13,0.00,0.00,10,4,21,0.00
2013-6-15,78.9,61.4,45.8,53.8,47.8,40.5,89,64,32,0.00,0.00,11,3,21,0.00
2013-6-16,82.1,64.3,44.6,50.8,46.6,42.6,94,58,30,0.00,0.00,13,4,22,0.00
2013-6-17,75.2,59.6,46.8,53.4,48.5,43.5,90,69,36,0.00,0.00,13,4,21,0.00
2013-6-18,70.1,60.0,46.9,51.1,48.6,45.1,95,68,45,0.00,0.00,15,8,30,0.00
2013-6-19,75.0,63.0,46.2,48.2,45.2,41.6,85,55,31,0.00,0.00,13,6,24,0.00
2013-6-20,78.8,63.7,47.0,46.9,44.8,42.2,84,54,30,0.00,0.00,12,5,24,0.00
2013-6-21,83.8,66.2,45.4,48.8,45.1,40.3,88,53,22,0.00,0.00,12,4,22,0.00
2013-6-22,88.2,69.1,47.2,49.7,46.5,41.8,85,50,21,0.00,0.00,12,4,22,0.00
2013-6-23,70.7,62.9,54.8,59.5,55.3,48.3,87,76,60,0.00,0.00,10,5,21,0.00
2013-6-24,64.9,60.4,57.1,59.1,55.8,53.2,96,85,69,0.00,0.00,8,3,15,0.00
2013-6-25,68.5,62.9,58.6,63.4,60.7,56.9,97,93,82,0.00,0.00,5,2,12,0.00
2013-6-26,81.8,69.9,62.5,64.8,61.8,58.6,97,78,49,0.00,0.00,8,3,15,0.45
2013-6-27,89.8,72.7,54.6,63.7,58.8,53.5,97,67,34,0.00,0.00,10,3,17,0.00
2013-6-28,98.6,78.6,58.3,63.5,59.0,55.6,96,58,25,0.00,0.00,12,3,21,0.00
2013-6-29,102.1,80.7,58.1,60.7,56.3,46.4,90,50,16,0.00,0.00,10,3,19,0.00
2013-6-30,97.8,76.9,57.3,59.0,55.6,50.7,88,54,21,0.00,0.00,8,3,17,0.00
2013-7-1,101.1,75.4,55.9,61.4,57.1,53.2,92,60,22,0.00,0.00,8,3,21,0.00
2013-7-2,95.6,75.4,62.4,61.9,58.6,55.4,87,60,29,0.00,0.00,7,3,21,0.00
2013-7-3,99.7,75.7,57.9,62.5,58.0,55.1,90,59,29,0.00,0.00,9,3,15,0.00
2013-7-4,101.3,80.8,62.6,62.1,55.2,39.6,78,47,16,0.00,0.00,8,4,21,0.00
2013-7-5,74.4,65.3,52.7,56.3,51.7,44.8,87,63,40,0.00,0.00,7,4,14,0.00
2013-7-6,77.2,63.5,54.5,55.7,53.3,51.5,90,72,46,0.00,0.00,7,3,14,0.00
2013-7-7,85.3,64.3,49.3,55.3,51.8,47.2,94,69,34,0.00,0.00,7,3,14,0.00
2013-7-8,86.3,65.5,48.6,55.8,51.2,45.7,92,65,33,0.00,0.00,7,3,14,0.00
2013-7-9,96.0,70.4,47.8,54.4,49.9,44.4,95,58,17,0.00,0.00,7,2,14,0.00
2013-7-10,90.7,67.9,49.0,54.6,47.5,30.0,93,56,14,0.00,0.00,9,3,15,0.00
2013-7-11,80.1,62.8,49.7,54.0,49.9,46.4,90,67,34,0.00,0.00,10,3,15,0.00
2013-7-12,83.3,63.1,50.0,56.2,50.9,47.6,92,69,33,0.00,0.00,9,3,15,0.00
2013-7-13,87.8,65.7,47.0,55.4,49.7,44.4,95,62,27,0.00,0.00,8,3,15,0.00
2013-7-14,86.4,63.9,44.8,56.0,49.6,42.3,95,65,28,0.00,0.00,8,3,15,0.00
2013-7-15,75.5,59.0,49.4,53.2,50.1,46.8,91,75,46,0.00,0.00,10,4,17,0.00
2013-7-16,69.7,60.0,54.1,54.4,51.8,50.1,87,75,58,0.00,0.00,11,6,21,0.00
2013-7-17,83.3,63.9,48.1,56.7,52.2,46.6,96,70,32,0.00,0.00,10,3,15,0.00
2013-7-18,90.0,65.2,48.8,55.8,50.9,45.6,97,68,24,0.00,0.00,8,3,15,0.00
2013-7-19,94.3,67.2,49.8,57.5,52.1,47.3,93,65,25,0.00,0.00,10,3,17,0.00
2013-7-20,90.5,66.4,51.7,57.6,54.1,48.1,90,69,32,0.00,0.00,6,3,12,0.00
2013-7-21,86.5,66.3,49.7,56.8,52.0,47.3,92,64,30,0.00,0.00,8,3,19,0.00
2013-7-22,87.8,67.9,52.0,57.4,53.1,48.4,91,63,31,0.00,0.00,10,3,17,0.00
2013-7-23,83.0,71.8,60.8,57.3,52.2,42.5,80,53,25,0.00,0.00,8,3,14,0.00
2013-7-24,90.6,70.8,53.1,56.9,52.0,45.7,91,57,24,0.00,0.00,11,3,19,0.00
2013-7-25,87.9,67.8,52.9,55.8,52.2,50.0,90,62,29,0.00,0.00,10,3,17,0.00
2013-7-26,87.4,65.5,49.8,56.4,52.0,47.2,93,66,34,0.00,0.00,9,3,17,0.00
2013-7-27,83.3,64.5,52.4,56.3,52.7,49.4,90,69,38,0.00,0.00,9,3,15,0.00
2013-7-28,81.9,62.5,52.0,55.9,51.7,48.5,92,71,37,0.00,0.00,8,4,19,0.00
2013-7-29,76.5,60.9,50.7,53.5,51.2,47.9,91,73,44,0.00,0.00,11,4,21,0.00
2013-7-30,81.0,63.3,53.2,56.0,52.4,50.2,90,71,42,0.00,0.00,10,4,17,0.00
2013-7-31,79.5,64.2,52.9,54.1,51.4,48.0,92,67,39,0.00,0.00,12,4,24,0.00
2013-8-1,78.7,62.1,46.2,52.2,49.1,44.5,95,67,35,0.00,0.00,11,3,22,0.00
2013-8-2,84.8,64.4,45.4,55.5,49.9,43.0,95,65,28,0.00,0.00,9,3,19,0.00
2013-8-3,82.0,63.9,53.0,55.9,52.0,48.5,93,69,34,0.00,0.00,8,3,15,0.00
2013-8-4,79.3,60.0,48.9,55.2,50.8,46.2,92,74,42,0.00,0.00,9,3,17,0.00
2013-8-5,82.2,63.4,51.2,55.2,50.7,48.1,90,68,30,0.00,0.00,8,4,15,0.00
2013-8-6,75.0,60.5,49.7,52.8,51.2,47.0,91,74,45,0.00,0.00,13,5,22,0.00
2013-8-7,71.5,62.1,55.5,55.7,53.3,50.8,87,74,56,0.00,0.00,10,5,19,0.00
2013-8-8,76.0,63.0,53.7,55.8,53.4,50.5,89,73,49,0.00,0.00,11,4,21,0.00
2013-8-9,75.5,60.4,52.5,55.4,52.1,49.8,91,76,48,0.00,0.00,12,5,21,0.00
2013-8-10,77.5,62.8,53.9,55.7,54.0,51.3,91,75,46,0.00,0.00,12,5,22,0.00
2013-8-11,82.0,64.3,51.1,56.5,52.8,49.2,95,71,34,0.00,0.00,11,3,19,0.00
2013-8-12,85.8,63.5,49.6,55.7,51.0,46.5,96,69,29,0.00,0.00,10,3,17,0.00
2013-8-13,91.4,67.0,47.8,55.6,50.0,44.1,96,63,21,0.00,0.00,10,3,19,0.00
2013-8-14,89.4,67.0,47.8,57.0,51.0,45.0,90,62,25,0.00,0.00,12,3,21,0.00
2013-8-15,86.0,69.6,51.9,62.1,57.8,50.4,96,69,41,0.00,0.00,13,4,22,0.00
2013-8-16,88.6,71.0,54.9,61.0,56.5,49.1,96,66,31,0.00,0.00,13,4,22,0.00
2013-8-17,87.5,70.5,52.2,58.0,55.0,49.8,93,62,34,0.00,0.00,8,3,14,0.00
2013-8-18,97.9,75.9,57.0,59.5,56.4,52.6,94,58,26,0.00,0.00,9,3,17,0.00
2013-8-19,95.8,73.7,59.9,61.1,57.1,54.1,86,61,29,0.00,0.00,7,3,17,0.00
2013-8-20,88.3,68.5,58.5,59.2,57.0,55.5,91,70,36,0.00,0.00,7,4,19,0.00
2013-8-21,83.8,65.5,53.0,56.0,53.7,49.2,89,69,35,0.00,0.00,10,4,19,0.00
2013-8-22,75.7,61.3,52.1,54.8,52.1,48.5,90,74,46,0.00,0.00,12,5,22,0.00
2013-8-23,82.9,65.6,53.1,56.0,53.2,49.9,90,68,34,0.00,0.00,9,3,15,0.00
2013-8-24,81.4,66.5,48.6,57.0,53.2,46.9,94,65,34,0.00,0.00,13,5,24,0.00
2013-8-25,81.2,68.3,58.3,61.1,58.0,55.2,90,72,49,0.00,0.00,10,4,19,0.00
2013-8-26,80.8,67.3,55.5,57.5,54.9,50.2,86,67,40,0.00,0.00,11,5,21,0.00
2013-8-27,87.2,65.7,49.1,56.4,51.9,47.1,94,66,29,0.00,0.00,13,4,22,0.00
2013-8-28,83.2,66.3,50.6,61.5,55.9,49.0,96,72,41,0.00,0.00,13,4,22,0.00
2013-8-29,84.3,69.7,59.2,61.6,59.2,57.3,94,72,44,0.00,0.00,12,4,22,0.00
2013-8-30,92.6,72.3,54.6,61.0,55.9,48.6,96,63,28,0.00,0.00,11,3,21,0.00
2013-8-31,85.3,67.4,50.8,55.9,51.8,39.8,92,62,23,0.00,0.00,12,4,22,0.00
2013-9-1,82.3,67.4,55.1,59.1,54.9,51.2,88,67,35,0.00,0.00,13,4,24,0.00
2013-9-2,81.6,69.9,60.6,61.1,58.2,55.4,87,68,44,0.00,0.00,12,4,22,0.00
2013-9-3,79.5,65.9,50.9,57.6,53.3,46.3,92,68,32,0.00,0.00,13,5,24,0.00
2013-9-4,80.6,64.7,48.9,56.8,53.3,47.6,96,70,40,0.00,0.00,12,4,22,0.00
2013-9-5,80.8,65.9,49.5,54.7,51.7,47.9,95,65,32,0.00,0.00,12,4,28,0.00
2013-9-6,95.1,70.9,48.1,53.1,47.9,44.2,91,51,19,0.00,0.00,8,3,15,0.00
2013-9-7,98.4,74.0,51.7,49.6,45.1,38.6,80,43,14,0.00,0.00,10,3,19,0.00
2013-9-8,97.9,71.3,49.8,55.9,48.0,42.8,85,51,16,0.00,0.00,8,3,15,0.00
2013-9-9,99.2,71.2,49.6,54.0,48.6,43.8,85,52,16,0.00,0.00,10,3,19,0.00
2013-9-10,83.3,64.4,51.2,58.6,54.9,48.6,93,73,43,0.00,0.00,11,4,22,0.00
2013-9-11,76.3,66.2,62.5,58.4,57.3,56.6,84,74,52,0.00,0.00,10,5,19,0.00
2013-9-12,81.9,66.2,55.1,60.2,57.4,52.3,91,75,46,0.00,0.00,11,4,22,0.00
2013-9-13,84.6,65.1,53.6,57.2,54.3,51.0,95,72,34,0.00,0.00,12,3,22,0.00
2013-9-14,79.7,61.7,49.6,56.5,52.7,48.0,95,75,45,0.00,0.00,10,3,19,0.00
2013-9-15,78.7,62.7,47.0,57.6,53.0,45.4,96,74,42,0.00,0.00,12,4,21,0.00
2013-9-16,84.8,65.2,49.9,57.9,53.4,48.9,97,70,35,0.00,0.00,11,3,21,0.00
2013-9-17,77.5,63.9,48.1,52.7,50.0,46.4,95,64,34,0.00,0.00,14,5,28,0.00
2013-9-18,84.9,65.6,48.1,49.5,44.9,38.1,89,55,19,0.00,0.00,11,4,22,0.00
2013-9-19,91.4,68.8,45.8,47.3,38.4,16.1,82,40,10,0.00,0.00,8,3,17,0.00
2013-9-20,76.5,60.1,42.4,58.7,46.9,32.7,80,63,42,0.00,0.00,11,4,21,0.00
2013-9-21,69.2,61.8,53.5,60.0,55.7,50.8,96,81,57,0.00,0.00,11,4,21,0.00
2013-9-22,74.4,60.3,46.7,53.7,50.8,45.5,97,74,43,0.00,0.00,12,4,22,0.46
2013-9-23,85.1,65.8,50.0,58.5,53.4,48.1,94,68,33,0.00,0.00,11,3,22,0.00
2013-9-24,80.4,63.8,51.5,54.4,50.2,44.1,93,65,28,0.00,0.00,14,5,24,0.00
2013-9-25,73.9,61.2,50.1,46.9,44.0,37.3,82,56,27,0.00,0.00,14,5,24,0.00
2013-9-26,77.4,61.9,44.4,41.8,37.4,30.2,81,45,20,0.00,0.00,10,4,19,0.00
2013-9-27,81.1,68.2,51.1,37.6,32.4,27.9,59,28,18,0.00,0.00,11,5,19,0.00
2013-9-28,83.9,62.3,45.5,52.7,42.7,34.9,84,55,18,0.00,0.00,10,3,21,0.00
2013-9-29,74.2,62.2,52.3,61.6,56.5,49.8,93,83,58,0.00,0.00,8,3,17,0.00
2013-9-30,74.4,64.8,51.8,62.1,59.7,49.7,95,84,62,0.00,0.00,7,3,15,0.04
2013-10-1,79.4,59.6,43.1,50.8,47.5,41.6,96,69,32,0.00,0.00,8,2,21,0.06
2013-10-2,76.5,61.2,45.9,50.1,44.3,37.0,95,59,30,0.00,0.00,10,3,21,0.00
2013-10-3,77.3,62.8,42.0,39.8,30.6,21.9,80,37,13,0.00,0.00,12,6,30,0.00
2013-10-4,84.9,73.2,64.8,27.3,22.9,19.8,24,16,10,0.00,0.00,14,8,37,0.00
2013-10-5,86.2,65.9,48.6,34.9,27.7,16.7,48,27,11,0.00,0.00,6,3,24,0.00
2013-10-6,86.5,64.4,41.9,37.3,32.5,29.5,73,36,13,0.00,0.00,5,3,12,0.00
2013-10-7,87.0,62.6,43.6,39.9,32.2,22.5,65,38,10,0.00,0.00,9,3,17,0.00
2013-10-8,80.2,57.7,41.5,46.1,39.6,36.4,88,56,21,0.00,0.00,9,3,17,0.00
2013-10-9,73.1,59.1,44.0,43.2,39.7,33.2,85,53,30,0.00,0.00,10,4,22,0.00
2013-10-10,74.8,59.0,45.2,49.2,41.7,35.6,74,55,26,0.00,0.00,7,3,14,0.00
2013-10-11,71.8,54.0,38.4,47.4,41.9,36.9,95,68,36,0.00,0.00,9,3,15,0.00
2013-10-12,73.4,52.9,37.1,48.5,42.0,35.3,95,70,33,0.00,0.00,12,3,21,0.00
2013-10-13,78.0,58.2,41.0,45.2,39.7,33.4,93,56,20,0.00,0.00,10,3,19,0.00
2013-10-14,80.3,57.8,39.8,42.1,37.1,34.6,86,53,21,0.00,0.00,7,3,14,0.00
2013-10-15,85.6,60.1,39.6,37.4,31.8,24.7,78,43,11,0.00,0.00,7,3,15,0.00
2013-10-16,83.3,60.5,40.3,35.3,31.7,28.6,69,39,15,0.00,0.00,6,3,12,0.00
2013-10-17,85.4,61.2,41.3,36.1,31.9,28.2,72,41,13,0.00,0.00,8,3,15,0.00
2013-10-18,83.4,67.3,39.6,42.6,39.4,33.5,79,39,21,0.00,0.00,5,3,10,0.00
2013-10-19,86.3,62.7,40.1,42.5,38.5,36.1,85,48,18,0.00,0.00,4,2,8,0.00
2013-10-20,83.2,57.7,38.5,45.8,39.3,34.1,88,57,21,0.00,0.00,8,2,14,0.00
2013-10-21,78.7,53.1,37.0,49.4,43.2,35.3,95,74,31,0.00,0.00,6,2,12,0.00
2013-10-22,82.2,54.5,37.1,50.3,43.6,35.9,96,72,30,0.00,0.00,5,2,10,0.00
2013-10-23,81.6,52.4,35.8,49.4,42.7,34.7,97,75,29,0.00,0.00,4,1,12,0.00
2013-10-24,68.1,52.1,40.5,48.2,45.1,38.4,95,79,48,0.00,0.00,7,2,14,0.00
2013-10-25,76.9,53.9,38.1,48.9,43.9,37.0,96,73,34,0.00,0.00,6,2,12,0.00
2013-10-26,83.6,57.7,39.6,47.8,42.2,37.5,93,63,24,0.00,0.00,6,2,12,0.00
2013-10-27,61.4,49.0,35.4,49.1,42.8,33.9,96,80,59,0.00,0.00,16,4,26,0.00
2013-10-28,66.5,52.7,38.3,45.4,41.6,36.5,94,69,37,0.00,0.00,6,3,12,0.00
2013-10-29,66.4,53.9,43.6,46.0,44.1,40.3,93,71,45,0.00,0.00,5,2,12,0.00
2013-10-30,69.9,51.1,37.3,46.7,40.8,36.2,96,72,38,0.00,0.00,7,2,14,0.00
2013-10-31,76.0,55.6,37.3,43.7,40.9,35.7,95,63,30,0.00,0.00,6,2,10,0.00
2013-11-1,78.6,55.3,40.3,43.9,40.1,37.8,92,63,24,0.00,0.00,6,2,12,0.00
2013-11-2,77.2,55.5,40.5,52.0,42.7,37.4,89,66,27,0.00,0.00,10,3,19,0.00
2013-11-3,69.1,51.6,34.0,41.4,30.7,21.7,87,52,17,0.00,0.00,5,3,12,0.00
2013-11-4,74.1,56.3,36.6,33.4,26.6,17.8,81,40,12,0.00,0.00,11,4,22,0.00
2013-11-5,76.2,60.3,44.0,35.0,31.2,26.4,61,36,20,0.00,0.00,8,3,19,0.00
2013-11-6,74.9,56.8,42.4,37.4,35.5,32.8,72,48,22,0.00,0.00,6,3,14,0.00
2013-11-7,76.1,57.6,44.5,40.1,36.7,32.6,82,50,21,0.00,0.00,10,3,17,0.00
2013-11-8,75.8,53.8,38.5,49.1,40.3,28.1,94,64,33,0.00,0.00,9,3,19,0.00
2013-11-9,75.8,52.7,37.0,44.6,38.8,29.9,88,64,29,0.00,0.00,5,2,12,0.00
2013-11-10,69.8,51.2,39.9,59.8,43.8,38.3,96,79,46,0.00,0.00,5,2,10,0.00
2013-11-11,67.4,52.0,39.1,48.4,43.7,37.2,97,76,45,0.00,0.00,4,2,8,0.00
2013-11-12,73.9,58.4,46.1,47.2,44.2,41.0,82,61,33,0.00,0.00,5,2,12,0.00
2013-11-13,81.7,56.3,40.5,50.2,44.4,38.5,93,70,28,0.00,0.00,8,2,14,0.00
2013-11-14,66.5,52.2,41.9,51.3,45.0,31.1,97,79,39,0.00,0.00,5,2,17,0.00
2013-11-15,67.6,52.7,38.5,39.6,35.4,30.8,80,54,29,0.00,0.00,9,4,17,0.00
2013-11-16,68.8,51.1,37.2,48.5,40.2,32.6,91,69,33,0.00,0.00,10,3,19,0.00
2013-11-17,63.9,47.6,36.4,47.7,42.1,35.3,97,83,53,0.00,0.00,5,2,10,0.00
2013-11-18,61.1,48.5,36.1,47.1,42.5,35.2,97,81,54,0.00,0.00,7,3,12,0.00
2013-11-19,55.8,52.9,49.1,55.0,51.3,44.6,97,94,80,0.00,0.00,4,1,8,0.00
2013-11-20,59.7,55.4,49.3,56.7,53.7,48.1,98,94,82,0.00,0.00,6,2,12,0.00
2013-11-21,64.1,56.6,49.0,50.2,29.4,13.2,97,45,16,0.00,0.00,14,7,33,0.00
2013-11-22,73.7,64.9,56.8,12.3,8.1,3.9,17,11,8,0.00,0.00,13,8,31,0.00
2013-11-23,66.2,53.7,38.3,34.5,26.7,10.2,73,39,12,0.00,0.00,6,4,15,0.00
2013-11-24,64.5,46.6,32.9,42.3,35.5,29.5,90,68,36,0.00,0.00,5,2,14,0.00
2013-11-25,65.1,46.9,33.8,42.7,38.6,32.9,97,76,42,0.00,0.00,6,2,10,0.00
2013-11-26,65.6,47.5,36.2,42.6,38.3,35.1,96,74,37,0.00,0.00,4,2,8,0.00
2013-11-27,67.1,49.5,37.3,42.1,39.0,35.1,92,70,38,0.00,0.00,7,3,14,0.00
2013-11-28,72.6,51.2,37.9,43.3,39.7,35.9,93,69,31,0.00,0.00,5,2,10,0.00
2013-11-29,69.6,50.0,38.0,43.1,39.3,35.8,92,71,33,0.00,0.00,4,2,10,0.00
2013-11-30,69.4,50.3,39.4,45.3,41.1,37.4,94,74,39,0.00,0.00,5,2,10,0.00
2013-12-1,73.6,51.6,37.7,45.8,41.0,36.4,96,72,32,0.00,0.00,5,2,10,0.00
2013-12-2,68.2,52.0,37.0,53.1,44.6,36.0,97,78,45,0.00,0.00,11,3,19,0.00
2013-12-3,58.5,49.1,35.1,52.6,32.8,15.6,90,57,27,0.00,0.00,9,4,22,0.00
2013-12-4,53.8,40.6,27.4,26.4,20.6,15.2,81,49,26,0.00,0.00,8,3,19,0.00
2013-12-5,52.2,34.5,21.4,27.7,19.1,12.3,82,59,21,0.00,0.00,5,3,10,0.00
2013-12-6,48.2,36.7,23.5,45.1,30.6,21.4,96,80,49,0.00,0.00,9,2,24,0.00
2013-12-7,47.8,38.6,26.5,42.9,28.4,22.3,94,70,36,0.00,0.00,10,4,26,0.00
2013-12-8,47.9,32.6,23.8,27.9,23.6,18.9,95,73,35,0.00,0.00,5,2,8,0.00
2013-12-9,50.9,33.0,20.7,25.6,20.9,17.6,88,65,29,0.00,0.00,6,3,12,0.00
2013-12-10,53.9,35.3,22.6,29.9,24.5,19.7,90,68,32,0.00,0.00,5,3,8,0.00
2013-12-11,56.8,38.2,26.5,31.0,28.0,24.5,92,70,36,0.00,0.00,6,3,10,0.00
2013-12-12,54.0,34.7,26.9,32.9,28.0,24.5,91,79,42,0.00,0.00,6,3,10,0.00
2013-12-13,61.6,44.3,28.0,37.4,33.6,26.7,96,70,37,0.00,0.00,4,3,8,0.00
2013-12-14,60.6,42.5,30.0,38.4,34.2,28.8,96,76,41,0.00,0.00,6,3,10,0.00
2013-12-15,63.0,42.7,29.6,38.1,33.7,28.6,96,74,37,0.00,0.00,5,3,8,0.00
2013-12-16,65.5,47.3,34.4,38.1,35.6,32.3,92,67,35,0.00,0.00,7,3,12,0.00
2013-12-17,65.4,48.7,35.4,40.5,36.7,32.1,90,66,37,0.00,0.00,5,3,10,0.00
2013-12-18,65.8,48.0,37.2,44.7,39.1,33.4,94,74,35,0.00,0.00,8,3,15,0.00
2013-12-19,63.4,51.4,37.6,36.9,25.7,5.7,83,43,15,0.00,0.00,11,5,24,0.00
2013-12-20,68.4,46.7,30.2,30.1,21.3,5.3,65,40,14,0.00,0.00,6,3,14,0.00
2013-12-21,68.5,47.8,35.4,47.2,38.8,30.2,93,73,42,0.00,0.00,4,2,12,0.00
2013-12-22,63.6,46.4,34.7,42.7,37.0,33.9,97,74,37,0.00,0.00,6,3,10,0.00
2013-12-23,65.5,47.1,35.1,39.9,37.0,33.2,93,72,39,0.00,0.00,5,3,8,0.00
2013-12-24,70.1,48.7,37.1,42.5,38.2,35.2,93,71,33,0.00,0.00,6,3,10,0.00
2013-12-25,40.4,37.4,34.4,36.4,33.7,31.6,91,87,81,0.00,0.00,4,2,6,0.00
2013-12-26,67.7,48.7,32.3,37.9,32.6,29.3,91,58,28,0.00,0.00,5,3,10,0.00
2013-12-27,59.9,43.7,33.1,37.1,32.0,28.8,85,66,33,0.00,0.00,4,3,6,0.00
2013-12-28,70.2,45.6,29.0,36.0,31.4,26.5,92,62,26,0.00,0.00,5,3,12,0.00
2013-12-29,66.2,48.1,35.3,31.6,27.1,18.8,75,47,22,0.00,0.00,6,3,14,0.00
2013-12-30,63.7,45.0,31.1,35.3,30.7,26.5,86,61,31,0.00,0.00,5,3,10,0.00
2013-12-31,65.1,44.3,34.2,38.8,34.0,30.2,87,70,37,0.00,0.00,6,2,10,0.00
2014-1-1,64.6,44.9,30.8,35.1,31.5,26.8,87,63,29,0.00,0.00,4,3,8,0.00
2014-1-2,66.0,47.3,34.3,38.0,33.7,30.2,85,63,31,0.00,0.00,5,3,10,0.00